This is the latest recevied weather packets stored in our database for station/object CE1RLP-31. If no packets are shown the sender has not sent any weather packets the latest 10 day(s).
| Time | Temp. | Humidity | Pressure | Rain* | Wind** | Luminosity | Snow |
|---|---|---|---|---|---|---|---|
| 1777780359 | 11.11° C | 10% | 1101 hPa | - | - | - | - |
| 1777779459 | 11.11° C | 9% | 1101.1 hPa | - | - | - | - |
| 1777778559 | 11.11° C | 10% | 1101 hPa | - | - | - | - |
| 1777777659 | 11.67° C | 10% | 1101 hPa | - | - | - | - |
| 1777776759 | 11.67° C | 10% | 1101 hPa | - | - | - | - |
| 1777775859 | 11.67° C | 10% | 1101 hPa | - | - | - | - |
| 1777774959 | 11.67° C | 11% | 1101 hPa | - | - | - | - |
| 1777774059 | 12.22° C | 11% | 1101 hPa | - | - | - | - |
| 1777773159 | 12.22° C | 11% | 1101 hPa | - | - | - | - |
| 1777772258 | 12.22° C | 11% | 1100.8 hPa | - | - | - | - |
| 1777768658 | 12.78° C | 11% | 1100.8 hPa | - | - | - | - |
| 1777767758 | 12.78° C | 11% | 1100.9 hPa | - | - | - | - |
| 1777766858 | 13.33° C | 11% | 1100.9 hPa | - | - | - | - |
| 1777765958 | 13.33° C | 11% | 1100.8 hPa | - | - | - | - |
| 1777765058 | 13.33° C | 11% | 1100.7 hPa | - | - | - | - |
| 1777764158 | 13.89° C | 10% | 1100.6 hPa | - | - | - | - |
| 1777758759 | 16.11° C | 10% | 1100.4 hPa | - | - | - | - |
| 1777757859 | 17.22° C | 9% | 1100.4 hPa | - | - | - | - |
| 1777754258 | 17.78° C | 9% | 1100.4 hPa | - | - | - | - |
| 1777752458 | 18.33° C | 8% | 1100.5 hPa | - | - | - | - |
| 1777748858 | 19.44° C | 8% | 1100.6 hPa | - | - | - | - |
| 1777741657 | 21.67° C | 8% | 1101.2 hPa | - | - | - | - |
| 1777739857 | 21.11° C | 8% | 1101.4 hPa | - | - | - | - |
| 1777738057 | 20.56° C | 8% | 1101.6 hPa | - | - | - | - |
| 1777736258 | 20° C | 9% | 1101.8 hPa | - | - | - | - |
* Rain since midnight (hover to see other rain measurements)
** Current wind speed in m/s (hover to see current wind gust speed)